Wind_Speed
100 100 100 101 101 102 102 102 102 102 102 102 102 103 103 103 104 104 103 103 103 103 103 103 103 103 103 103 103 103 103 103 102 101 101 100 100 99 99 99 99 98 98 98 98 99 98 98 97 97 96 95
100 100 100 100 100 100 100 100 100 99 99 99 99 99 99 100 100 100 100 100 100 99 99 99 99 99 99 100 100 101 101 101 100 100 100 99 99 98 98 98 98 98 98 98 98 99 99 99 98 98 98 97
99 99 98 98 97 97 96 96 95 95 95 95 95 95 96 96 97 97 97 97 96 96 95 95 95 95 96 96 97 97 98 98 98 99 99 98 98 98 97 97 97 97 98 98 98 99 99 99 99 98 98 99
97 96 95 94 93 93 92 92 91 91 91 92 93 93 94 95 95 95 95 95 94 93 92 92 91 91 91 92 92 93 94 95 95 96 96 97 97 97 97 97 97 96 97 97 98 98 99 99 99 99 99 99
93 92 91 91 90 89 89 88 88 88 89 90 91 92 92 92 93 93 93 92 92 91 90 89 88 88 88 88 89 90 90 91 91 92 93 93 94 95 95 96 96 96 96 97 97 98 99 99 100 100 100 100
89 88 87 87 86 86 86 86 86 87 87 88 89 89 89 89 89 89 89 88 88 88 88 87 86 86 86 86 87 87 87 88 88 89 89 90 91 92 92 93 94 94 95 95 96 97 98 99 100 100 100 101
84 84 84 84 84 84 84 84 85 85 85 86 86 86 86 86 85 85 85 85 86 86 86 85 84 84 84 84 85 85 85 85 85 86 86 87 88 89 90 91 92 92 93 94 94 96 97 98 99 100 101 101
82 82 82 83 83 83 84 84 84 84 84 85 85 84 84 83 82 82 83 83 84 83 84 83 83 83 83 83 83 84 83 83 83 83 83 84 85 86 87 88 89 90 91 92 93 94 95 97 98 99 100 102
82 83 83 83 83 84 84 84 84 84 84 84 84 83 81 80 80 81 82 82 82 82 82 82 81 81 82 82 82 82 81 81 81 80 80 81 82 83 84 85 87 88 89 90 91 92 93 95 96 98 99 101
83 83 83 83 84 84 84 84 84 84 85 84 83 81 79 79 79 80 80 80 80 79 79 79 78 78 79 79 79 79 79 78 78 77 77 77 77 79 80 82 83 85 86 87 88 90 91 93 94 96 97 99
84 84 84 84 84 84 84 84 84 84 84 83 81 79 78 77 78 78 78 78 77 76 75 74 73 73 74 75 75 75 74 74 73 72 71 71 71 72 74 77 79 81 83 85 86 87 88 89 91 93 95 97
85 85 85 84 84 83 83 83 84 84 83 82 80 78 77 77 77 76 76 75 74 71 69 67 67 67 67 68 68 68 68 67 67 66 65 65 65 65 67 69 72 76 78 80 82 84 85 86 88 90 92 94
86 86 85 84 84 83 83 83 83 83 82 82 80 78 76 75 75 74 73 72 69 66 63 61 60 60 60 61 61 61 61 62 62 62 62 62 61 61 61 62 64 67 71 74 77 79 81 83 85 86 88 90
87 86 85 84 83 83 82 82 82 82 82 81 79 77 75 74 73 73 71 69 66 62 60 58 56 56 56 56 56 57 59 59 60 60 60 60 60 59 58 58 58 60 62 65 68 72 75 78 80 82 84 86
88 87 85 84 83 82 81 82 82 82 81 80 78 76 75 74 73 72 70 67 64 61 59 57 56 56 55 56 56 57 58 59 59 59 59 59 58 58 58 58 57 57 58 60 61 64 67 70 74 77 79 82
88 86 85 83 82 81 81 82 82 81 80 79 77 75 74 74 73 71 69 66 63 61 60 59 58 58 57 57 57 58 59 59 59 59 59 58 58 58 58 58 57 57 58 59 59 60 61 63 66 69 72 76
88 86 84 82 81 81 81 82 81 80 79 78 76 74 74 73 72 70 67 65 63 62 62 61 60 60 59 59 59 59 59 59 59 59 59 58 58 58 58 58 58 57 58 59 59 59 60 61 63 64 66 69
88 86 84 82 81 80 80 81 80 79 78 77 74 73 73 72 70 68 66 65 64 63 63 63 62 62 61 60 60 60 60 60 61 60 60 60 59 59 59 59 59 59 59 60 60 60 60 61 63 63 65 66
88 86 84 83 81 80 80 80 79 77 77 75 73 72 72 70 69 67 66 65 65 64 64 64 64 64 63 62 61 62 62 62 62 62 62 62 61 61 61 60 61 61 60 61 61 61 61 62 63 64 66 67
88 86 84 82 81 79 79 79 78 77 76 74 71 71 70 69 68 67 67 66 65 65 65 65 65 65 64 63 63 63 64 64 64 64 64 65 64 64 64 63 63 63 63 62 63 63 64 64 65 66 67 68
87 85 84 82 80 79 78 79 78 77 76 73 71 70 70 69 68 68 67 67 67 66 67 67 67 67 67 66 66 66 66 66 66 66 66 67 67 66 66 67 67 67 66 65 65 66 66 67 68 68 69 70
86 84 83 81 79 78 78 79 78 77 76 73 70 69 69 69 68 68 68 68 68 68 68 69 69 70 70 69 69 69 69 69 69 68 68 69 70 69 69 70 70 71 70 69 68 69 70 70 70 71 72 73
84 82 81 80 79 79 79 79 78 76 75 72 69 68 68 69 69 69 70 70 70 70 70 71 71 72 72 72 72 72 72 73 72 72 72 72 72 72 72 72 73 74 74 73 73 73 74 74 74 74 75 76
82 81 80 79 78 77 77 77 75 74 73 71 69 68 69 69 70 71 71 72 72 72 73 73 74 74 75 75 75 75 75 76 76 76 76 75 75 76 76 76 76 77 76 76 76 77 77 77 78 78 79 79
81 79 78 76 75 73 73 73 71 71 71 70 69 68 69 71 71 72 73 73 74 74 75 76 77 77 78 78 78 78 79 80 80 80 80 80 79 79 80 80 81 81 80 79 80 80 81 81 82 82 82 83
78 76 73 71 70 69 69 69 68 68 69 68 68 69 70 72 73 73 74 75 76 77 78 79 80 80 81 81 81 81 82 83 84 84 84 84 84 84 83 84 86 86 84 84 84 85 84 85 86 87 87 87
74 71 69 67 66 66 67 67 67 67 67 68 68 70 72 73 74 75 76 77 78 80 81 82 83 84 84 85 85 85 86 87 87 87 88 87 87 87 87 88 89 90 89 88 89 88 88 88 90 91 92 92
70 68 67 66 65 65 65 66 66 67 68 68 69 72 75 76 77 77 78 80 81 83 84 86 87 87 88 89 89 89 89 90 91 91 91 91 90 90 91 91 92 93 94 93 93 93 92 93 94 95 97 97
70 69 68 67 67 67 67 66 67 68 69 70 72 74 77 79 81 82 82 83 85 86 88 89 90 91 92 92 93 93 93 94 95 95 95 95 95 95 95 95 96 97 98 99 98 98 97 98 98 98 100 101
72 71 71 70 69 69 69 69 69 70 71 73 75 77 80 83 85 86 87 88 89 90 91 93 94 95 96 96 97 97 98 98 99 100 101 101 101 101 101 100 100 102 103 104 104 104 103 103 102 102 104 105
75 75 75 75 74 73 72 72 72 74 75 76 78 80 83 85 88 90 91 92 93 94 95 97 98 99 100 101 101 102 102 103 104 105 106 106 106 106 106 106 105 106 108 109 109 109 109 108 107 107 108 108
Wind_Direction
280 280 280 279 279 279 278 278 277 277 276 276 275 274 274 273 272 272 271 271 270 269 269 269 268 268 268 267 267 267 266 265 264 264 263 262 261 260 260 260 259 258 258 257 257 256 256 255 253 252 251 250
280 280 280 279 279 278 278 277 277 276 276 275 275 274 273 273 272 272 271 271 270 269 269 268 268 267 267 266 266 265 265 265 264 264 263 262 261 260 259 259 258 258 257 257 256 256 255 254 253 252 251 250
280 280 280 279 278 278 277 277 276 276 275 275 275 274 274 273 273 272 272 272 271 270 269 268 268 267 266 265 265 264 264 263 263 263 262 261 261 260 259 258 257 257 256 256 256 255 254 254 253 252 251 250
280 280 279 279 278 277 277 277 276 276 276 275 275 274 274 274 274 274 274 273 272 271 271 269 268 267 266 265 264 263 262 262 261 261 260 260 259 259 258 257 256 256 255 255 255 254 254 254 253 251 250 250
280 279 279 278 278 277 277 277 276 276 275 275 275 275 274 274 274 274 274 274 273 272 271 270 269 267 266 265 264 263 262 261 261 260 259 258 258 257 257 256 255 254 254 254 253 253 253 253 253 252 251 249
280 280 279 278 278 278 278 277 276 276 275 275 275 274 274 274 274 274 273 273 273 272 271 270 269 268 267 266 264 263 262 261 261 260 259 258 257 256 256 255 254 253 252 252 252 251 251 252 252 252 251 250
282 281 281 280 280 279 279 278 278 277 276 276 275 274 274 274 274 274 273 272 272 272 271 270 269 268 267 266 265 264 263 262 261 260 259 259 258 256 255 255 254 253 252 250 250 250 250 250 250 250 250 250
284 283 283 283 282 282 281 280 280 279 278 277 276 275 275 275 275 274 274 273 272 272 271 270 269 268 267 266 265 264 263 263 262 261 260 259 258 257 256 255 254 253 251 250 249 248 248 248 248 248 249 249
286 285 285 285 284 284 283 283 282 280 279 278 277 277 277 277 276 275 275 274 273 272 271 270 268 267 266 265 264 264 264 263 262 261 261 260 259 258 257 255 254 253 252 250 249 248 247 247 247 247 247 247
287 287 287 286 286 285 285 284 283 281 280 279 279 279 278 278 277 276 276 275 275 273 272 270 268 266 265 263 263 263 263 263 262 262 261 260 259 258 257 256 254 253 252 251 249 248 247 247 246 246 246 246
288 288 288 287 287 286 285 284 283 282 281 280 280 279 279 278 278 277 277 276 276 275 273 271 268 265 263 262 261 261 262 262 262 261 261 260 259 257 256 255 254 253 252 251 250 248 247 247 246 246 246 245
289 289 289 288 288 287 285 284 282 282 281 281 280 280 279 278 277 277 276 276 275 274 272 270 267 265 262 260 260 260 260 260 260 260 260 259 258 257 256 255 254 253 252 251 250 249 248 247 246 246 245 245
290 290 289 289 288 286 285 283 282 281 281 280 280 280 279 278 277 276 275 274 272 270 270 268 266 264 261 260 258 258 258 258 259 259 259 259 258 258 257 255 254 253 252 251 250 249 248 247 246 246 245 245
290 290 289 288 287 286 285 283 282 281 281 280 280 280 279 277 276 274 272 269 267 266 266 266 264 262 260 259 258 257 257 257 258 259 259 259 258 258 257 256 254 253 252 251 250 249 249 247 247 246 245 245
291 290 289 289 287 286 285 283 282 281 281 280 280 280 278 276 274 271 268 265 263 263 263 263 262 260 259 258 258 257 257 257 257 258 258 258 258 257 256 255 254 254 253 251 250 250 249 248 247 246 246 245
291 290 290 289 287 286 285 283 282 282 281 281 281 279 278 275 272 269 265 262 260 261 261 261 260 259 259 258 258 257 257 257 257 257 257 257 257 257 256 256 255 254 254 253 252 251 250 250 249 247 246 246
291 290 289 288 287 285 284 283 282 281 281 280 280 279 276 273 270 266 262 259 259 260 260 260 260 259 258 258 258 257 257 257 257 257 257 256 256 256 256 255 255 254 254 254 253 253 252 252 251 250 249 247
291 290 289 288 286 285 284 282 281 281 280 280 279 277 275 271 266 262 259 258 259 260 260 260 260 259 258 258 257 257 257 257 256 256 255 255 254 254 254 254 254 253 253 253 253 253 253 253 253 252 251 250
291 290 289 288 287 285 284 282 281 280 280 279 277 275 272 268 263 259 258 259 260 260 260 260 260 260 259 258 257 257 257 256 256 255 254 254 253 252 252 252 252 252 251 252 252 252 252 252 252 252 252 251
291 290 289 288 286 285 283 282 281 280 279 277 275 273 269 264 260 258 258 260 260 260 260 260 260 259 259 258 257 257 257 256 256 256 255 254 253 252 252 251 251 251 251 251 252 252 251 251 251 251 251 251
290 289 288 287 285 284 282 281 280 279 278 276 273 270 266 261 259 259 260 260 260 260 260 260 259 259 258 258 258 257 257 257 256 256 256 255 255 253 253 253 252 251 250 250 251 252 252 251 251 251 252 252
288 287 286 285 284 282 281 279 279 278 276 275 272 269 264 260 259 260 261 261 261 260 260 260 259 258 258 258 258 258 258 258 257 257 256 257 257 255 255 255 254 253 251 251 251 252 253 252 252 252 252 252
287 286 285 284 282 281 279 278 277 276 275 273 271 267 262 260 259 260 261 261 261 261 260 259 259 259 258 258 258 258 258 258 258 258 257 258 258 258 257 256 256 256 254 253 252 253 253 253 253 253 253 252
286 285 284 283 281 280 278 277 276 275 273 271 268 264 260 259 260 261 262 262 262 261 260 260 259 259 259 259 259 259 259 259 259 258 258 258 258 259 259 258 258 257 257 256 256 255 255 255 255 254 254 254
285 284 283 282 281 279 278 277 275 273 271 269 266 261 258 259 261 262 262 262 262 262 261 260 260 260 260 260 259 259 259 259 259 259 259 259 259 259 259 259 259 258 257 258 258 258 257 258 257 257 256 256
284 283 282 281 280 279 278 277 275 272 270 268 264 259 258 259 261 262 262 262 262 262 261 261 261 261 261 261 261 260 260 260 260 260 260 259 259 259 259 259 259 258 257 257 257 258 258 259 260 259 258 258
283 282 281 280 279 279 278 277 274 272 269 267 263 259 258 259 261 262 262 263 263 263 262 262 262 262 262 262 262 262 262 262 261 261 261 260 260 260 260 260 260 260 259 257 257 257 258 259 260 261 261 260
283 281 280 280 279 278 277 275 273 271 269 266 262 259 258 259 260 261 262 262 263 263 263 263 263 263 263 263 263 263 263 263 263 263 262 262 262 261 261 261 261 261 260 259 258 258 258 258 259 260 261 261
283 282 281 280 278 277 276 274 271 269 268 266 263 260 259 259 260 261 262 263 263 263 263 263 263 263 263 263 264 264 264 264 263 263 263 263 262 262 262 262 262 262 261 260 259 258 258 257 258 258 259 260
284 283 281 280 278 276 275 273 272 269 267 266 264 262 261 261 262 263 264 264 264 264 264 264 264 263 263 263 263 263 263 263 263 263 263 262 262 262 262 261 261 261 261 260 260 259 258 257 257 257 258 259
283 282 281 279 278 276 275 273 271 270 268 266 265 264 263 263 263 263 264 264 264 264 264 264 264 264 264 264 264 264 264 263 263 263 263 263 262 262 262 262 261 261 261 261 260 260 259 258 257 257 257 257
Height
10673 10671 10669 10666 10663 10659 10656 10654 10651 10649 10647 10645 10643 10641 10639 10637 10636 10635 10635 10634 10634 10634 10633 10633 10633 10633 10633 10632 10633 10633 10635 10636 10638 10640 10643 10645 10647 10649 10650 10652 10654 10656 10658 10660 10661 10663 10665 10669 10673 10676 10679 10684
10663 10661 10658 10654 10651 10647 10645 10642 10640 10638 10636 10633 10631 10629 10627 10625 10624 10623 10622 10622 10622 10622 10622 10622 10622 10622 10622 10622 10622 10622 10622 10624 10625 10626 10629 10632 10634 10637 10638 10640 10642 10644 10646 10648 10650 10651 10653 10656 10660 10664 10666 10670
10652 10649 10646 10642 10639 10636 10633 10631 10628 10626 10624 10622 10620 10618 10616 10613 10612 10610 10610 10609 10610 10610 10611 10611 10611 10611 10611 10610 10610 10611 10611 10612 10613 10614 10615 10618 10621 10623 10626 10628 10631 10632 10634 10636 10637 10639 10641 10643 10647 10651 10654 10657
10641 10637 10633 10630 10627 10625 10622 10620 10618 10616 10613 10611 10609 10606 10604 10602 10600 10599 10598 10597 10597 10597 10598 10598 10599 10599 10599 10599 10598 10598 10599 10600 10601 10602 10603 10605 10607 10610 10612 10615 10618 10621 10622 10624 10626 10627 10629 10631 10634 10638 10642 10645
10629 10625 10622 10619 10617 10615 10613 10611 10608 10606 10603 10600 10598 10596 10594 10592 10590 10588 10586 10585 10584 10584 10585 10585 10586 10586 10586 10586 10586 10586 10587 10588 10589 10590 10591 10593 10594 10597 10599 10602 10605 10608 10610 10613 10615 10616 10617 10619 10621 10624 10628 10632
10617 10614 10611 10609 10607 10605 10603 10600 10598 10595 10593 10590 10588 10586 10584 10582 10580 10578 10576 10574 10573 10572 10572 10573 10573 10573 10574 10574 10574 10574 10575 10576 10577 10578 10579 10581 10582 10584 10586 10588 10591 10595 10598 10601 10603 10605 10607 10608 10610 10612 10615 10618
10606 10603 10601 10599 10596 10594 10592 10589 10587 10585 10582 10580 10578 10576 10574 10572 10570 10568 10566 10564 10563 10562 10561 10561 10562 10561 10562 10562 10562 10562 10563 10564 10565 10567 10568 10568 10570 10572 10574 10576 10578 10581 10585 10589 10591 10593 10595 10597 10599 10600 10603 10605
10595 10592 10590 10588 10585 10582 10580 10577 10576 10574 10571 10568 10567 10565 10564 10562 10560 10558 10556 10554 10553 10552 10550 10550 10550 10550 10550 10550 10551 10551 10551 10553 10554 10555 10556 10557 10558 10560 10562 10564 10566 10568 10572 10576 10579 10581 10583 10585 10587 10589 10591 10593
10584 10582 10579 10577 10574 10571 10569 10566 10564 10562 10559 10556 10555 10554 10553 10552 10550 10547 10545 10543 10542 10541 10540 10539 10539 10539 10539 10539 10540 10540 10540 10542 10543 10544 10545 10546 10547 10548 10549 10552 10554 10556 10559 10563 10566 10570 10572 10574 10576 10578 10580 10582
10574 10571 10569 10567 10564 10561 10558 10555 10552 10549 10547 10545 10544 10543 10543 10541 10539 10537 10535 10533 10532 10531 10529 10528 10528 10528 10528 10529 10530 10530 10530 10531 10532 10533 10535 10536 10537 10538 10538 10540 10542 10544 10547 10550 10554 10558 10561 10563 10565 10567 10569 10571
10565 10562 10559 10557 10554 10550 10547 10544 10540 10538 10535 10534 10533 10533 10532 10530 10528 10526 10525 10523 10522 10520 10519 10518 10518 10517 10518 10518 10520 10520 10520 10521 10522 10523 10525 10526 10527 10528 10528 10529 10531 10533 10535 10538 10542 10545 10549 10552 10554 10557 10559 10560
10556 10552 10549 10547 10544 10540 10537 10533 10530 10527 10525 10524 10523 10523 10522 10520 10518 10516 10515 10513 10512 10511 10509 10509 10508 10508 10508 10509 10511 10512 10512 10512 10513 10514 10515 10516 10518 10518 10519 10519 10520 10522 10524 10527 10530 10533 10537 10540 10543 10545 10548 10550
10546 10543 10540 10537 10534 10530 10527 10523 10520 10517 10515 10514 10513 10513 10512 10510 10508 10507 10505 10504 10504 10503 10501 10501 10500 10500 10500 10501 10503 10504 10504 10504 10505 10506 10507 10508 10509 10510 10510 10511 10511 10512 10514 10517 10519 10522 10525 10528 10531 10534 10537 10539
10537 10534 10530 10527 10524 10520 10517 10514 10510 10508 10505 10504 10503 10503 10501 10500 10499 10497 10496 10495 10495 10495 10494 10493 10493 10493 10493 10494 10496 10496 10496 10497 10498 10498 10499 10500 10501 10502 10502 10503 10503 10504 10505 10507 10509 10511 10514 10517 10520 10522 10525 10528
10527 10524 10521 10517 10514 10510 10507 10503 10500 10497 10496 10494 10494 10493 10491 10490 10489 10487 10486 10486 10487 10487 10486 10486 10486 10486 10487 10488 10489 10489 10489 10490 10491 10491 10491 10492 10493 10493 10494 10495 10496 10497 10497 10499 10501 10503 10504 10507 10509 10511 10514 10516
10517 10514 10511 10507 10504 10500 10496 10493 10489 10487 10486 10485 10484 10483 10481 10480 10479 10478 10477 10477 10478 10479 10478 10478 10479 10479 10480 10481 10481 10481 10481 10482 10483 10483 10484 10485 10485 10486 10486 10487 10488 10490 10490 10491 10494 10495 10496 10498 10500 10502 10504 10506
10506 10503 10500 10497 10493 10490 10486 10482 10479 10477 10476 10474 10473 10472 10471 10470 10469 10468 10468 10469 10469 10469 10470 10470 10470 10471 10472 10473 10474 10474 10474 10474 10475 10476 10476 10477 10478 10478 10479 10479 10480 10482 10482 10483 10486 10487 10489 10490 10491 10494 10496 10497
10495 10492 10489 10486 10482 10479 10475 10472 10469 10467 10466 10464 10463 10462 10461 10460 10459 10459 10460 10460 10460 10460 10461 10461 10461 10462 10464 10465 10466 10465 10466 10466 10466 10468 10469 10469 10470 10470 10471 10472 10472 10474 10475 10475 10477 10479 10481 10482 10483 10485 10486 10488
10484 10480 10477 10474 10470 10467 10464 10461 10458 10457 10455 10454 10453 10452 10450 10450 10450 10450 10451 10451 10452 10452 10452 10452 10452 10453 10455 10456 10457 10457 10457 10458 10458 10459 10460 10460 10462 10463 10463 10464 10464 10465 10467 10468 10469 10470 10472 10473 10474 10476 10477 10479
10473 10469 10465 10462 10459 10455 10452 10449 10448 10446 10445 10444 10443 10442 10440 10440 10441 10441 10442 10443 10443 10443 10443 10443 10443 10443 10445 10447 10448 10448 10448 10449 10449 10450 10451 10451 10453 10454 10455 10456 10456 10457 10459 10460 10461 10462 10463 10464 10465 10466 10467 10469
10463 10458 10454 10451 10448 10445 10441 10439 10437 10436 10434 10434 10433 10432 10431 10431 10432 10433 10433 10434 10434 10435 10434 10434 10435 10434 10435 10437 10438 10438 10438 10438 10439 10440 10441 10441 10442 10445 10446 10446 10446 10447 10449 10452 10453 10453 10453 10454 10456 10457 10458 10459
10452 10448 10444 10440 10437 10434 10431 10429 10427 10425 10424 10424 10424 10423 10423 10423 10424 10425 10425 10425 10426 10426 10425 10425 10425 10425 10426 10427 10428 10428 10428 10428 10429 10430 10431 10431 10431 10434 10436 10435 10435 10437 10439 10442 10443 10443 10442 10443 10446 10447 10447 10449
10440 10437 10433 10430 10427 10424 10421 10419 10417 10416 10414 10414 10414 10414 10415 10415 10415 10416 10416 10416 10416 10417 10416 10416 10416 10415 10415 10417 10418 10418 10417 10417 10418 10419 10420 10420 10420 10421 10424 10425 10424 10425 10427 10430 10432 10432 10431 10432 10435 10436 10436 10438
10429 10426 10423 10420 10417 10415 10411 10409 10408 10407 10405 10405 10405 10405 10406 10406 10406 10406 10406 10406 10406 10406 10406 10406 10405 10405 10405 10406 10407 10407 10406 10406 10406 10407 10408 10409 10410 10410 10411 10413 10413 10413 10415 10418 10419 10419 10420 10421 10422 10423 10424 10426
10419 10416 10413 10411 10408 10405 10402 10400 10399 10398 10396 10395 10396 10396 10396 10396 10396 10396 10396 10395 10395 10396 10395 10395 10394 10394 10394 10394 10396 10396 10395 10395 10394 10395 10396 10398 10399 10399 10400 10400 10399 10401 10404 10407 10407 10406 10408 10409 10409 10410 10412 10413
10409 10406 10404 10402 10399 10397 10394 10391 10389 10388 10387 10386 10387 10387 10387 10387 10386 10386 10385 10385 10384 10384 10384 10383 10383 10382 10382 10382 10383 10384 10383 10383 10383 10383 10384 10385 10387 10387 10389 10388 10386 10387 10392 10395 10394 10394 10397 10397 10396 10396 10398 10399
10399 10397 10395 10394 10391 10389 10386 10382 10380 10379 10378 10377 10378 10378 10378 10377 10376 10375 10375 10374 10373 10373 10372 10371 10371 10370 10370 10370 10370 10371 10371 10370 10370 10370 10370 10372 10374 10375 10376 10376 10374 10373 10377 10380 10381 10382 10386 10385 10383 10383 10382 10384
10389 10387 10386 10384 10383 10381 10379 10375 10372 10370 10369 10368 10369 10368 10367 10367 10366 10365 10364 10362 10361 10361 10360 10359 10358 10357 10357 10357 10357 10358 10358 10357 10356 10356 10356 10357 10360 10361 10362 10363 10362 10360 10361 10363 10365 10369 10373 10372 10372 10372 10368 10368
10379 10378 10377 10375 10373 10371 10369 10367 10365 10363 10361 10359 10359 10358 10357 10355 10354 10354 10353 10352 10350 10349 10347 10346 10345 10344 10344 10343 10343 10343 10344 10343 10342 10341 10341 10342 10344 10346 10347 10348 10348 10347 10344 10346 10349 10352 10356 10356 10359 10361 10356 10355
10369 10368 10366 10365 10363 10361 10360 10358 10356 10354 10353 10351 10348 10348 10346 10345 10343 10342 10342 10340 10338 10337 10335 10333 10332 10331 10331 10330 10329 10329 10330 10329 10327 10326 10326 10326 10328 10329 10330 10332 10334 10332 10328 10328 10332 10333 10336 10340 10343 10345 10343 10342
10359 10357 10355 10353 10352 10351 10350 10350 10348 10345 10343 10341 10339 10337 10335 10333 10331 10329 10329 10328 10326 10324 10322 10320 10319 10317 10316 10316 10315 10314 10314 10314 10312 10310 10309 10309 10311 10312 10312 10314 10317 10316 10312 10311 10313 10313 10315 10321 10323 10326 10327 10327